Location: Cassano d�Adda
(45.5333°N, 9.5167°E)
Time: 20:19:10
(UTC+00:00)

Cosmos 2026 Rocket - Pass Details

Date: 08 December 2019
Orbit: 940 x 1000 km, 82.9° (Epoch: 24 January)

Event Time Altitude Azimuth Distance (km) Brightness Sun altitude
Rises 17:05:49 0° 164° (SSE) 3,600 7.0 -14.7°
Reaches altitude 10° 17:08:25 10° 158° (SSE) 2,655 6.2 -15.1°
Maximum altitude 17:14:02 42° 89° (E) 1,321 4.2 -16.0°
Drops below altitude 10° 17:19:41 10° 21° (NNE) 2,667 6.0 -17.0°
Enters shadow 17:21:16 - 17° (NNE) 3,243 6.4 -17.3°
